Angoon, AK

5:24 PM AKST on December 10, 2019 (GMT -0900)
Angoon

Weather History for PAGN - November, 2019

Change the Weather History Date:

Tuesday, November 19, 2019

  Actual Average (PASI) Record (PASI)
Temperature  
Mean Temperature 40 °F -  
Max Temperature 45 °F 41 °F 58 °F (1944)
Min Temperature 37 °F 33 °F 16 °F (1963)
Degree Days  
Heating Degree Days 24    
Moisture  
Dew Point 39 °F    
Average Humidity 94    
Maximum Humidity 100    
Minimum Humidity 86    
Precipitation  
Precipitation 0.02 in - - ()
Sea Level Pressure  
Sea Level Pressure 30.10 in    
Wind  
Wind Speed 2 mph ()    
Max Wind Speed 8 mph    
Max Gust Speed -    
Visibility 9.2 miles    
Events Rain    
Averages and records for this station are not official NWS values.
T = Trace of Precipitation, MM = Missing Value Source: Averaged Metar Reports

Daily Weather History Graph

Daily Weather History Graph

Search for Another Location

Airport or City:

Astronomy

Nov. 19, 2019 Rise Set
Actual Time 7:50 AM AKST 3:35 PM AKST
Civil Twilight 7:05 AM AKST 4:21 PM AKST
Nautical Twilight 6:17 AM AKST 5:09 PM AKST
Astronomical Twilight 5:31 AM AKST 5:55 PM AKST
Moon 10:57 PM AKST (11/19) 1:54 PM AKST (11/19)
Length of Visible Light 9h 15m
Length of Day
7h 44m
Waning Gibbous, 50% of the Moon is Illuminated
Nov 19
Waning Gibbous
Nov 19
Last Quarter
Nov 26
New
Dec 3
First Quarter
Dec 11
Full

Hourly Weather History & Observations

Time (AKST) Temp. Windchill Dew Point Humidity Pressure Visibility Wind Dir Wind Speed Gust Speed Precip Events Conditions
12:56 AM 37.0 °F - 37.0 °F 100% 30.04 in 6.0 mi Calm Calm - N/A   Mostly Cloudy
1:56 AM 37.0 °F - 37.0 °F 100% 30.06 in 10.0 mi Calm Calm - N/A   Overcast
2:56 AM 37.0 °F - 37.0 °F 100% 30.07 in 10.0 mi Calm Calm - N/A   Overcast
3:14 AM 37.4 °F - 37.4 °F 100% 30.10 in 10.0 mi Calm Calm - N/A   Overcast
4:18 AM 37.4 °F - 37.4 °F 100% 30.11 in 10.0 mi Calm Calm - N/A   Overcast
6:56 AM 39.0 °F 35.7 °F 37.9 °F 96% 30.11 in 10.0 mi SSE 4.6 mph - 0.00 in   Overcast
7:56 AM 39.0 °F - 39.0 °F 100% 30.12 in 10.0 mi Calm Calm - 0.00 in   Overcast
8:53 AM 39.2 °F - 39.2 °F 100% 30.16 in 1.8 mi Calm Calm - N/A   Overcast
9:02 AM 39.2 °F 37.0 °F 39.2 °F 100% 30.16 in 2.0 mi SSE 3.5 mph - N/A   Overcast
9:09 AM 39.2 °F - 39.2 °F 100% 30.16 in 10.0 mi Calm Calm - N/A   Overcast
10:56 AM 41.0 °F 39.0 °F 39.9 °F 96% 30.15 in 10.0 mi SSE 3.5 mph - N/A   Overcast
12:56 PM 41.0 °F 39.0 °F 39.9 °F 96% 30.14 in 10.0 mi Variable 3.5 mph - 0.01 in Rain Light Rain
1:56 PM 42.1 °F 40.2 °F 39.9 °F 92% 30.13 in 10.0 mi ENE 3.5 mph - 0.01 in Rain Light Rain
2:56 PM 42.1 °F 39.2 °F 39.9 °F 92% 30.12 in 10.0 mi East 4.6 mph - 0.00 in Rain Light Rain
3:56 PM 42.1 °F 37.7 °F 39.9 °F 92% 30.10 in 10.0 mi ENE 6.9 mph - 0.00 in   Overcast
5:44 PM 42.8 °F 39.3 °F 39.2 °F 87% 30.12 in 10.0 mi East 5.8 mph - 0.00 in   Overcast
5:56 PM 43.0 °F 39.5 °F 39.9 °F 89% 30.09 in 10.0 mi East 5.8 mph - 0.00 in   Overcast
6:56 PM 43.0 °F 40.3 °F 41.0 °F 93% 30.08 in 10.0 mi ENE 4.6 mph - N/A   Overcast
7:56 PM 43.0 °F 38.8 °F 41.0 °F 93% 30.07 in 10.0 mi ENE 6.9 mph - N/A   Overcast
8:56 PM 44.1 °F 40.8 °F 41.0 °F 89% 30.06 in 10.0 mi East 5.8 mph - N/A   Overcast
9:56 PM 44.1 °F 40.1 °F 41.0 °F 89% 30.05 in 10.0 mi ENE 6.9 mph - N/A   Overcast
10:21 PM 44.6 °F 41.4 °F 41.0 °F 87% 30.08 in 10.0 mi ENE 5.8 mph - N/A   Overcast
11:37 PM 44.6 °F 40.2 °F 41.0 °F 87% 30.07 in 10.0 mi ENE 8.1 mph - 0.00 in Rain Light Rain
11:56 PM 45.0 °F 41.8 °F 41.0 °F 86% 30.04 in 10.0 mi ENE 5.8 mph - 0.00 in Rain Light Rain